TimeCDT,TemperatureF,Dew PointF,Humidity,Sea Level PressureIn,VisibilityMPH,Wind Direction,Wind SpeedMPH,Gust SpeedMPH,PrecipitationIn,Events,Conditions,WindDirDegrees,DateUTC
12:15 AM,62.2,61.3,97,30.00,7.0,Calm,Calm,-,N/A,,Clear,0,2013-08-20 05:15:00
12:35 AM,61.0,60.8,99,30.00,3.0,Calm,Calm,-,N/A,,Clear,0,2013-08-20 05:35:00
12:55 AM,59.9,59.4,98,30.00,4.0,Calm,Calm,-,N/A,,Clear,0,2013-08-20 05:55:00
1:15 AM,59.9,59.2,97,30.00,5.0,Calm,Calm,-,N/A,,Clear,0,2013-08-20 06:15:00
1:35 AM,59.0,58.6,99,30.00,2.0,Calm,Calm,-,N/A,,Clear,0,2013-08-20 06:35:00
1:55 AM,58.3,57.9,99,30.00,2.5,Calm,Calm,-,N/A,,Clear,0,2013-08-20 06:55:00
2:15 AM,58.5,58.3,99,30.00,3.0,Calm,Calm,-,N/A,,Clear,0,2013-08-20 07:15:00
2:35 AM,58.3,58.1,99,30.00,4.0,Calm,Calm,-,N/A,,Clear,0,2013-08-20 07:35:00
2:55 AM,58.6,58.5,99,30.00,2.5,Calm,Calm,-,N/A,,Clear,0,2013-08-20 07:55:00
3:15 AM,56.7,56.7,100,30.00,1.5,Calm,Calm,-,N/A,,Mist,0,2013-08-20 08:15:00
3:35 AM,55.9,55.6,99,30.00,3.0,Calm,Calm,-,N/A,,Mostly Cloudy,0,2013-08-20 08:35:00
3:55 AM,57.2,57.0,99,30.00,3.0,Calm,Calm,-,N/A,,Scattered Clouds,0,2013-08-20 08:55:00
4:15 AM,55.4,54.9,98,29.99,4.0,Calm,Calm,-,N/A,,Clear,0,2013-08-20 09:15:00
4:35 AM,56.3,56.1,99,29.99,1.2,Calm,Calm,-,N/A,,Mist,0,2013-08-20 09:35:00
4:55 AM,54.3,53.8,98,30.00,1.8,Calm,Calm,-,N/A,,Scattered Clouds,0,2013-08-20 09:55:00
5:15 AM,54.9,54.5,99,30.00,5.0,Calm,Calm,-,N/A,,Mostly Cloudy,0,2013-08-20 10:15:00
5:35 AM,55.6,55.0,98,30.00,5.0,Calm,Calm,-,N/A,,Scattered Clouds,0,2013-08-20 10:35:00
5:55 AM,55.8,55.8,100,30.01,4.0,Calm,Calm,-,N/A,,Mostly Cloudy,0,2013-08-20 10:55:00
6:15 AM,56.7,56.7,100,30.02,2.0,Calm,Calm,-,N/A,,Overcast,0,2013-08-20 11:15:00
6:35 AM,56.7,56.5,99,30.03,2.5,Calm,Calm,-,N/A,,Overcast,0,2013-08-20 11:35:00
6:55 AM,57.6,57.2,99,30.03,4.0,Calm,Calm,-,N/A,,Mostly Cloudy,0,2013-08-20 11:55:00
7:15 AM,59.5,58.8,97,30.03,4.0,Calm,Calm,-,N/A,,Mostly Cloudy,0,2013-08-20 12:15:00
7:35 AM,62.6,61.9,97,30.04,4.0,Calm,Calm,-,N/A,,Mostly Cloudy,0,2013-08-20 12:35:00
7:55 AM,64.9,63.0,93,30.04,5.0,Calm,Calm,-,N/A,,Scattered Clouds,0,2013-08-20 12:55:00
8:15 AM,68.4,63.0,83,30.03,10.0,SSW,3.5,-,N/A,,Scattered Clouds,200,2013-08-20 13:15:00
8:35 AM,69.8,63.3,80,30.03,10.0,SW,6.9,-,N/A,,Scattered Clouds,220,2013-08-20 13:35:00
8:55 AM,71.4,63.7,76,30.03,10.0,SW,4.6,-,N/A,,Scattered Clouds,220,2013-08-20 13:55:00
9:15 AM,72.5,63.5,73,30.02,10.0,South,5.8,-,N/A,,Clear,180,2013-08-20 14:15:00
9:35 AM,74.3,64.0,70,30.02,10.0,SW,5.8,-,N/A,,Clear,220,2013-08-20 14:35:00
9:55 AM,75.4,64.6,69,30.02,10.0,SW,6.9,-,N/A,,Clear,230,2013-08-20 14:55:00
10:15 AM,76.8,65.1,67,30.02,10.0,SW,6.9,-,N/A,,Clear,220,2013-08-20 15:15:00
10:35 AM,77.9,65.3,65,30.02,10.0,SSW,8.1,-,N/A,,Clear,210,2013-08-20 15:35:00
10:55 AM,79.2,65.8,64,30.01,10.0,SSW,11.5,-,N/A,,Clear,210,2013-08-20 15:55:00
11:15 AM,79.7,65.8,62,30.01,10.0,SSW,10.4,18.4,N/A,,Clear,210,2013-08-20 16:15:00
11:35 AM,81.1,66.4,61,30.01,10.0,SW,13.8,19.6,N/A,,Clear,220,2013-08-20 16:35:00
11:55 AM,81.5,66.2,60,30.01,10.0,SW,9.2,-,N/A,,Clear,220,2013-08-20 16:55:00
12:15 PM,82.8,66.7,58,30.00,10.0,SSW,13.8,18.4,N/A,,Scattered Clouds,210,2013-08-20 17:15:00
12:35 PM,83.1,67.1,58,30.00,10.0,SSW,12.7,17.3,N/A,,Scattered Clouds,210,2013-08-20 17:35:00
12:55 PM,83.1,66.9,58,30.00,10.0,SW,9.2,19.6,N/A,,Mostly Cloudy,220,2013-08-20 17:55:00
1:15 PM,83.7,67.3,58,29.99,10.0,SW,15.0,19.6,N/A,,Mostly Cloudy,220,2013-08-20 18:15:00
1:35 PM,83.1,67.3,59,29.99,10.0,SW,10.4,17.3,N/A,,Mostly Cloudy,220,2013-08-20 18:35:00
1:55 PM,82.4,66.6,59,29.99,10.0,SW,9.2,16.1,N/A,,Mostly Cloudy,220,2013-08-20 18:55:00
2:15 PM,83.8,67.5,58,29.98,10.0,SSW,12.7,20.7,N/A,,Scattered Clouds,200,2013-08-20 19:15:00
2:35 PM,83.7,67.3,58,29.98,10.0,SSW,12.7,19.6,N/A,,Scattered Clouds,200,2013-08-20 19:35:00
2:55 PM,84.0,67.3,57,29.97,10.0,SSW,13.8,21.9,N/A,,Mostly Cloudy,200,2013-08-20 19:55:00
3:15 PM,83.5,67.3,58,29.96,10.0,SW,13.8,18.4,N/A,,Mostly Cloudy,230,2013-08-20 20:15:00
3:35 PM,84.4,67.5,57,29.96,10.0,SSW,12.7,20.7,N/A,,Mostly Cloudy,200,2013-08-20 20:35:00
3:55 PM,83.8,67.3,57,29.96,10.0,SSW,11.5,18.4,N/A,,Mostly Cloudy,200,2013-08-20 20:55:00
4:15 PM,84.7,67.5,56,29.96,10.0,SSW,16.1,23.0,N/A,,Scattered Clouds,200,2013-08-20 21:15:00
4:35 PM,83.8,67.3,57,29.95,10.0,SW,11.5,23.0,N/A,,Clear,220,2013-08-20 21:35:00
4:55 PM,84.2,67.5,57,29.95,10.0,SSW,9.2,23.0,N/A,,Scattered Clouds,210,2013-08-20 21:55:00
5:15 PM,83.5,67.3,58,29.95,10.0,SSW,13.8,21.9,N/A,,Scattered Clouds,210,2013-08-20 22:15:00
5:35 PM,82.8,67.5,60,29.95,10.0,SSW,12.7,19.6,N/A,,Scattered Clouds,210,2013-08-20 22:35:00
5:55 PM,82.4,67.5,60,29.95,10.0,SSW,12.7,17.3,N/A,,Scattered Clouds,210,2013-08-20 22:55:00
6:15 PM,82.0,67.1,60,29.95,10.0,SSW,10.4,19.6,N/A,,Scattered Clouds,210,2013-08-20 23:15:00
6:35 PM,80.6,67.3,64,29.95,10.0,SSW,9.2,-,N/A,,Scattered Clouds,210,2013-08-20 23:35:00
6:55 PM,80.1,67.1,64,29.95,10.0,SSW,9.2,-,N/A,,Scattered Clouds,210,2013-08-20 23:55:00
7:15 PM,79.7,67.1,65,29.95,10.0,SSW,9.2,-,N/A,,Clear,210,2013-08-21 00:15:00
7:35 PM,78.4,67.1,68,29.95,10.0,SSW,5.8,-,N/A,,Clear,200,2013-08-21 00:35:00
7:55 PM,77.7,67.1,70,29.96,10.0,SSW,4.6,-,N/A,,Clear,200,2013-08-21 00:55:00
8:15 PM,76.6,66.9,72,29.96,10.0,SSW,5.8,-,N/A,,Clear,200,2013-08-21 01:15:00
8:35 PM,76.5,66.6,71,29.97,10.0,SW,6.9,-,N/A,,Clear,220,2013-08-21 01:35:00
8:55 PM,76.1,66.2,71,29.98,10.0,SSW,6.9,-,N/A,,Clear,210,2013-08-21 01:55:00
9:15 PM,75.7,66.2,72,29.98,10.0,SSW,4.6,-,N/A,,Scattered Clouds,210,2013-08-21 02:15:00
9:35 PM,75.6,66.4,73,29.98,10.0,SW,5.8,-,N/A,,Mostly Cloudy,220,2013-08-21 02:35:00
9:55 PM,75.0,66.6,75,29.98,10.0,SW,8.1,-,N/A,,Mostly Cloudy,220,2013-08-21 02:55:00
10:15 PM,74.8,66.6,75,29.99,10.0,SW,6.9,-,N/A,,Scattered Clouds,220,2013-08-21 03:15:00
10:35 PM,75.2,66.6,74,29.98,10.0,SSW,5.8,-,N/A,,Mostly Cloudy,210,2013-08-21 03:35:00
10:55 PM,75.0,66.6,75,29.98,10.0,SSW,6.9,-,N/A,,Overcast,210,2013-08-21 03:55:00
11:15 PM,74.7,66.4,75,29.98,10.0,SSW,5.8,-,N/A,,Mostly Cloudy,210,2013-08-21 04:15:00
11:35 PM,74.7,66.4,75,29.98,10.0,SSW,8.1,-,N/A,,Mostly Cloudy,200,2013-08-21 04:35:00
11:55 PM,74.3,66.4,76,29.97,10.0,SSW,6.9,-,N/A,,Mostly Cloudy,200,2013-08-21 04:55:00